TimePST,TemperatureF,Dew PointF,Humidity,Sea Level PressureIn,VisibilityMPH,Wind Direction,Wind SpeedMPH,Gust SpeedMPH,PrecipitationIn,Events,Conditions,WindDirDegrees,DateUTC
12:55 AM,24.1,18.0,77,30.53,10.0,West,3.5,-,N/A,,Overcast,270,2013-01-03 08:55:00
1:55 AM,24.1,19.0,81,30.53,10.0,Calm,Calm,-,N/A,,Overcast,0,2013-01-03 09:55:00
2:55 AM,24.1,18.0,77,30.52,10.0,WNW,3.5,-,N/A,,Overcast,290,2013-01-03 10:55:00
3:55 AM,24.1,18.0,77,30.51,10.0,Calm,Calm,-,N/A,,Overcast,0,2013-01-03 11:55:00
4:55 AM,23.0,18.0,81,30.49,10.0,Calm,Calm,-,N/A,,Overcast,0,2013-01-03 12:55:00
5:55 AM,23.0,17.1,78,30.48,10.0,Calm,Calm,-,N/A,,Overcast,0,2013-01-03 13:55:00
6:55 AM,23.0,17.1,78,30.48,7.0,WSW,3.5,-,0.00,Snow,Light Snow,250,2013-01-03 14:55:00
7:55 AM,23.0,17.1,78,30.48,10.0,Calm,Calm,-,0.00,,Overcast,0,2013-01-03 15:55:00
8:55 AM,23.0,16.0,74,30.48,10.0,West,4.6,-,N/A,,Overcast,270,2013-01-03 16:55:00
9:55 AM,23.0,17.1,78,30.49,10.0,Calm,Calm,-,N/A,,Overcast,0,2013-01-03 17:55:00
10:55 AM,24.1,17.1,75,30.48,10.0,WNW,3.5,-,N/A,,Overcast,300,2013-01-03 18:55:00
11:55 AM,24.1,17.1,75,30.44,10.0,SW,5.8,-,N/A,,Overcast,230,2013-01-03 19:55:00
12:55 PM,25.0,17.1,72,30.43,10.0,SW,3.5,-,N/A,,Overcast,230,2013-01-03 20:55:00
1:55 PM,25.0,17.1,72,30.40,10.0,Calm,Calm,-,N/A,,Overcast,0,2013-01-03 21:55:00
2:55 PM,25.0,17.1,72,30.40,10.0,WNW,5.8,-,N/A,,Overcast,290,2013-01-03 22:55:00
3:55 PM,25.0,17.1,72,30.41,10.0,Calm,Calm,-,N/A,,Overcast,0,2013-01-03 23:55:00
4:55 PM,24.1,18.0,77,30.41,10.0,Calm,Calm,-,N/A,,Overcast,0,2013-01-04 00:55:00
5:55 PM,24.1,19.0,81,30.40,10.0,Calm,Calm,-,N/A,,Overcast,0,2013-01-04 01:55:00
6:55 PM,23.0,18.0,81,30.39,10.0,Calm,Calm,-,N/A,,Overcast,0,2013-01-04 02:55:00
7:55 PM,24.1,18.0,77,30.40,10.0,Calm,Calm,-,N/A,,Overcast,0,2013-01-04 03:55:00
8:55 PM,24.1,18.0,77,30.40,10.0,Calm,Calm,-,N/A,,Overcast,0,2013-01-04 04:55:00
9:55 PM,24.1,18.0,77,30.40,10.0,Calm,Calm,-,N/A,,Overcast,0,2013-01-04 05:55:00
10:55 PM,23.0,18.0,81,30.40,10.0,Calm,Calm,-,N/A,,Overcast,0,2013-01-04 06:55:00
11:55 PM,24.1,18.0,77,30.41,10.0,Calm,Calm,-,N/A,,Overcast,0,2013-01-04 07:55:00